Location: Napier
(39.4830°S, 176.9170°E)
Time: 13:49:42
(UTC+12:00)

Cosmos 1452 Rocket - Pass Details

Date: 15 August 2020
Orbit: 767 x 774 km, 74.1° (Epoch: 23 September)

Event Time Altitude Azimuth Distance (km) Brightness Sun altitude
Rises 18:07:05 0° 358° (N) 3,236 6.9 -6.9°
Reaches altitude 10° 18:09:30 10° 3° (N) 2,319 6.1 -7.4°
Maximum altitude 18:14:34 49° 77° (ENE) 1,007 3.8 -8.4°
Drops below altitude 10° 18:19:42 10° 150° (SSE) 2,352 5.6 -9.3°
Sets 18:22:09 0° 155° (SSE) 3,288 6.4 -9.8°
